Weather History for KCRE - February, 2014

Change the Weather History Date:

Wednesday, February 12, 2014

  Actual Average Record
Temperature  
Mean Temperature 32 °F 47 °F  
Max Temperature 35 °F 57 °F 73 °F (2009)
Min Temperature 29 °F 38 °F 22 °F (1955)
Degree Days  
Heating Degree Days 33 18  
Month to date heating degree days 240 221  
Since 1 July heating degree days 1763 1689  
Cooling Degree Days 0 0  
Month to date cooling degree days 0 0  
Year to date cooling degree days 0 0  
Moisture  
Dew Point 29 °F    
Average Humidity 89    
Maximum Humidity 100    
Minimum Humidity 78    
Precipitation  
Precipitation 0.86 in 0.12 in 1.46 in (2001)
Month to date precipitation 1.67 1.34  
Year to date precipitation 3.48 5.03  
Sea Level Pressure  
Sea Level Pressure 30.09 in    
Wind  
Wind Speed 14 mph (NNE)    
Max Wind Speed 26 mph    
Max Gust Speed 36 mph    
Visibility 4 miles    
Events Rain    
T = Trace of Precipitation, MM = Missing Value Source: NWS Daily Summary

Daily Weather History Graph

Daily Weather History Graph

Search for Another Location

Airport or City:

Trip Planner

Search our weather history database for the weather conditions in past years. The results will help you decide how hot, cold, wet, or windy it might be!

Date:

Astronomy

Feb. 12, 2014 Rise Set
Actual Time 7:02 AM EST 5:56 PM EST
Civil Twilight 6:36 AM EST 6:22 PM EST
Nautical Twilight 6:07 AM EST 6:51 PM EST
Astronomical Twilight 5:38 AM EST 7:20 PM EST
Moon 4:10 PM EST (2/12) 5:15 AM EST (2/12)
Length of Visible Light 11h 45m
Length of Day
10h 54m
Waxing Gibbous, 95% of the Moon is Illuminated
Feb 12
Waxing Gibbous
Feb 14
Full
Feb 22
Last Quarter
Mar 1
New
Mar 8
First Quarter

Hourly Weather History & Observations

Time (EST) Temp. Windchill Dew Point Humidity Pressure Visibility Wind Dir Wind Speed Gust Speed Precip Events Conditions
12:53 AM 30.0 °F 19.1 °F 25.0 °F 82% 30.32 in 9.0 mi NNE 15.0 mph 20.7 mph N/A   Overcast
1:53 AM 30.0 °F 19.1 °F 25.0 °F 82% 30.30 in 8.0 mi NNE 15.0 mph - N/A   Overcast
2:53 AM 30.0 °F 19.5 °F 25.0 °F 82% 30.29 in 7.0 mi NE 13.8 mph 19.6 mph N/A   Overcast
3:53 AM 28.9 °F 18.6 °F 25.0 °F 85% 30.29 in 5.0 mi NNE 12.7 mph - 0.01 in Rain Light Freezing Rain
4:53 AM 30.0 °F 18.3 °F 25.0 °F 82% 30.29 in 6.0 mi NNE 17.3 mph 24.2 mph 0.01 in Rain Light Freezing Rain
5:53 AM 30.0 °F 18.7 °F 25.0 °F 82% 30.28 in 5.0 mi NE 16.1 mph 25.3 mph 0.02 in Rain Light Freezing Rain
6:53 AM 30.0 °F 19.1 °F 27.0 °F 88% 30.29 in 5.0 mi NE 15.0 mph - 0.02 in Rain Light Freezing Rain
7:06 AM 30.0 °F 20.0 °F 26.1 °F 85% 30.29 in 5.0 mi NNE 12.7 mph 21.9 mph 0.01 in   Overcast
7:17 AM 30.0 °F 19.5 °F 27.0 °F 88% 30.29 in 5.0 mi NNE 13.8 mph - 0.02 in Rain Light Freezing Rain
7:25 AM 30.0 °F 17.9 °F 26.1 °F 85% 30.28 in 5.0 mi NNE 18.4 mph 25.3 mph 0.03 in Rain Light Freezing Rain
7:53 AM 30.0 °F 18.7 °F 26.1 °F 85% 30.30 in 4.0 mi NNE 16.1 mph 24.2 mph 0.04 in Rain Light Freezing Rain
8:53 AM 30.0 °F 17.5 °F 27.0 °F 88% 30.27 in 3.0 mi NE 19.6 mph 27.6 mph 0.06 in Rain Light Freezing Rain
9:00 AM 30.0 °F 17.5 °F 27.0 °F 88% 30.25 in 2.0 mi NE 19.6 mph 27.6 mph 0.02 in Rain Light Freezing Rain
9:37 AM 30.9 °F 18.7 °F 27.0 °F 85% 30.27 in 3.0 mi NE 19.6 mph - 0.14 in Rain Light Freezing Rain
9:53 AM 30.9 °F 20.7 °F 28.0 °F 89% 30.27 in 3.0 mi NNE 13.8 mph 26.5 mph 0.16 in Rain Light Freezing Rain
10:03 AM 30.9 °F 20.2 °F 28.0 °F 89% 30.26 in 2.5 mi NE 15.0 mph 26.5 mph 0.02 in Rain Light Freezing Rain
10:20 AM 30.9 °F 19.4 °F 28.0 °F 89% 30.24 in 3.0 mi NNE 17.3 mph 24.2 mph 0.06 in Rain Light Freezing Rain
10:31 AM 30.9 °F 20.2 °F 28.0 °F 89% 30.25 in 3.0 mi NNE 15.0 mph 21.9 mph 0.08 in Rain Light Freezing Rain
10:53 AM 30.9 °F 20.2 °F 28.0 °F 89% 30.25 in 4.0 mi NNE 15.0 mph 23.0 mph 0.08 in Rain Light Freezing Rain
11:28 AM 32.0 °F 20.8 °F 28.9 °F 88% 30.20 in 3.0 mi NNE 17.3 mph 24.2 mph 0.03 in Rain Light Freezing Rain
11:53 AM 32.0 °F 21.6 °F 28.9 °F 88% 30.21 in 4.0 mi NNE 15.0 mph 23.0 mph 0.04 in   Overcast
12:00 PM 32.0 °F 21.6 °F 30.0 °F 92% 30.20 in 3.0 mi NNE 15.0 mph 23.0 mph 0.02 in Rain Light Freezing Rain
12:10 PM 32.0 °F 21.2 °F 30.0 °F 92% 30.18 in 2.5 mi NNE 16.1 mph 24.2 mph 0.03 in Rain Light Freezing Rain
12:31 PM 32.0 °F 20.5 °F 30.0 °F 92% 30.16 in 3.0 mi NNE 18.4 mph 24.2 mph 0.06 in Rain Light Freezing Rain
12:53 PM 32.0 °F 21.2 °F 30.0 °F 92% 30.12 in 2.5 mi NNE 16.1 mph 29.9 mph 0.10 in Rain Light Freezing Rain
1:12 PM 32.0 °F 20.8 °F 30.9 °F 96% 30.10 in 3.0 mi NNE 17.3 mph 24.2 mph 0.04 in   Overcast
1:19 PM 33.1 °F 22.6 °F 30.9 °F 92% 30.09 in 2.5 mi NNE 16.1 mph 27.6 mph 0.06 in   Overcast
1:53 PM 33.1 °F 22.2 °F 30.9 °F 92% 30.04 in 2.5 mi NNE 17.3 mph 26.5 mph 0.12 in Rain Light Rain
2:07 PM 33.1 °F 22.2 °F 30.9 °F 92% 30.05 in 4.0 mi NNW 17.3 mph 31.1 mph 0.02 in Rain Light Rain
2:27 PM 33.1 °F 22.2 °F 30.9 °F 92% 30.03 in 2.0 mi NNE 17.3 mph 35.7 mph 0.09 in Rain Heavy Rain
2:38 PM 33.1 °F 20.3 °F 30.9 °F 92% 29.98 in 6.0 mi NE 24.2 mph 29.9 mph 0.09 in Rain Light Rain
2:53 PM 33.1 °F 25.5 °F 30.9 °F 92% 30.03 in 3.0 mi NNW 9.2 mph 18.4 mph 0.09 in   Overcast
3:19 PM 33.1 °F 25.5 °F 30.9 °F 92% 30.02 in 3.0 mi NNW 9.2 mph 28.8 mph 0.00 in Rain Light Rain
3:53 PM 33.1 °F 21.9 °F 30.9 °F 92% 29.96 in 3.0 mi NE 18.4 mph - 0.00 in Rain Light Rain
4:22 PM 33.1 °F 21.2 °F 32.0 °F 96% 29.93 in 2.0 mi NE 20.7 mph 26.5 mph 0.00 in Rain Light Rain
4:49 PM 33.8 °F 22.8 °F 32.0 °F 93% 29.94 in 1.8 mi NE 18.4 mph 27.6 mph 0.00 in Rain Light Rain
4:53 PM 34.0 °F 24.2 °F 32.0 °F 92% 29.94 in 2.5 mi NE 15.0 mph 27.6 mph 0.00 in Rain Light Rain
5:07 PM 34.0 °F 24.6 °F 32.0 °F 92% 29.94 in 3.0 mi NNE 13.8 mph 21.9 mph 0.00 in Rain Light Rain
5:15 PM 34.0 °F 23.8 °F 32.0 °F 92% 29.94 in 2.0 mi NE 16.1 mph 21.9 mph 0.00 in Rain Light Rain
5:39 PM 34.0 °F 25.5 °F 32.0 °F 92% 29.94 in 4.0 mi NNE 11.5 mph - 0.00 in   Overcast
5:53 PM 34.0 °F 26.0 °F 32.0 °F 92% 29.94 in 2.0 mi NNE 10.4 mph - 0.00 in   Overcast
6:53 PM 34.0 °F 24.6 °F 32.0 °F 92% 29.88 in 2.0 mi NNE 13.8 mph 20.7 mph 0.00 in   Overcast
7:00 PM 34.0 °F 24.6 °F 32.0 °F 92% 29.87 in 5.0 mi NNE 13.8 mph 20.7 mph 0.00 in Rain Light Rain
7:30 PM 34.0 °F 25.5 °F 32.0 °F 92% 29.85 in 3.0 mi NNE 11.5 mph 21.9 mph 0.06 in Rain Rain
7:53 PM 34.0 °F 23.8 °F 33.1 °F 96% 29.83 in 5.0 mi NNE 16.1 mph 25.3 mph 0.10 in Rain Light Rain
8:53 PM 34.0 °F 28.0 °F 33.1 °F 96% 29.83 in 5.0 mi North 6.9 mph - 0.01 in Rain Light Rain
9:53 PM 34.0 °F 25.5 °F 32.0 °F 92% 29.75 in 7.0 mi North 11.5 mph 19.6 mph 0.00 in   Overcast
10:31 PM 34.0 °F 27.2 °F 33.1 °F 96% 29.72 in 6.0 mi North 8.1 mph - N/A   Overcast
10:53 PM 34.0 °F 27.2 °F 32.0 °F 92% 29.73 in 4.0 mi North 8.1 mph - N/A   Overcast
11:53 PM 34.0 °F 28.8 °F 32.0 °F 92% 29.71 in 3.0 mi North 5.8 mph - N/A   Overcast